This is the latest recevied weather packets stored in our database for station/object DC1MBB-9. If no packets are shown the sender has not sent any weather packets the latest 1 day(s).
| Time | Temp. | Humidity | Pressure | Rain* | Wind** | Luminosity | Snow |
|---|---|---|---|---|---|---|---|
| 1836274523 | 17.78° C | 78% | 965 hPa | - | 0 m/s | - | - |
| 1836274495 | 18.33° C | 78% | 965 hPa | - | 0 m/s | - | - |
| 1836274162 | 17.78° C | 78% | 965 hPa | - | 0 m/s | - | - |
| 1836274134 | 17.78° C | 78% | 965 hPa | - | 0 m/s | - | - |
| 1778013443 | 17.22° C | 67% | 952 hPa | - | 0 m/s | - | - |
| 1778013082 | 18.33° C | 57% | 951 hPa | - | 0 m/s | - | - |
| 1778012721 | 18.33° C | 54% | 951 hPa | - | 0 m/s | - | - |
| 1778012361 | 18.33° C | 55% | 951 hPa | - | 0 m/s | - | - |
| 1778012000 | 18.33° C | 55% | 951 hPa | - | 0 m/s | - | - |
| 1778011639 | 18.89° C | 54% | 951 hPa | - | 0 m/s | - | - |
| 1778011278 | 18.33° C | 54% | 951 hPa | - | 0 m/s | - | - |
| 1778010917 | 18.89° C | 53% | 951 hPa | - | 0 m/s | - | - |
| 1778010557 | 18.89° C | 53% | 951 hPa | - | 0 m/s | - | - |
| 1778010196 | 18.89° C | 53% | 951 hPa | - | 0 m/s | - | - |
| 1778009835 | 18.89° C | 53% | 951 hPa | - | 0 m/s | - | - |
| 1778009474 | 18.33° C | 54% | 950 hPa | - | 0 m/s | - | - |
| 1778009114 | 18.33° C | 54% | 950 hPa | - | 0 m/s | - | - |
| 1778008753 | 18.33° C | 53% | 950 hPa | - | 0 m/s | - | - |
| 1778008392 | 18.33° C | 53% | 950 hPa | - | 0 m/s | - | - |
| 1778008031 | 18.89° C | 53% | 950 hPa | - | 0 m/s | - | - |
| 1778007670 | 18.89° C | 51% | 950 hPa | - | 0 m/s | - | - |
| 1778007310 | 18.89° C | 51% | 950 hPa | - | 0 m/s | - | - |
| 1778006949 | 18.89° C | 50% | 950 hPa | - | 0 m/s | - | - |
| 1778006795 | 19.44° C | 50% | 949 hPa | - | 0 m/s | - | - |
| 1778006588 | 19.44° C | 50% | 949 hPa | - | 0 m/s | - | - |
* Rain since midnight (hover to see other rain measurements)
** Current wind speed in m/s (hover to see current wind gust speed)